Location: ActonStarParty
(42.4766°N, 71.4538°W)
Time: 19:09:50
(UTC-05:00)

Amateur Radio Satellites - All Passes

Search period start: 26 November 2014 18:39
Search period end: 27 November 2014 18:39
Location: ActonStarParty, 42.4766°N, 71.4538°W

Satellite Date Start Highest point End Downlink Frequencies (MHz)
Time Altitude Azimuth
BRITE-PL 26 Nov 18:44:08 18:47:17 17° 65° (ENE) 18:50:18 437.365/2234.400
BEESAT 3 26 Nov 18:47:14 18:50:16 20° 112° (ESE) 18:53:20 437.485
AAUSAT CUBESAT 2 26 Nov 18:52:54 18:54:24 12° 62° (ENE) 18:55:55 437.432
PCSat 26 Nov 18:53:01 18:58:15 53° 114° (ESE) 19:03:31 145.827
HO-68 26 Nov 18:55:26 19:02:03 42° 64° (ENE) 19:08:42 435.675
AIST 1 26 Nov 18:55:37 18:59:50 48° 93° (E) 19:04:06
CUTE-I 26 Nov 18:56:29 18:58:27 12° 272° (W) 19:00:26 437.470
GONETS M04 26 Nov 19:00:50 19:09:44 81° 82° (E) 19:18:31
PHONESAT 2.4 26 Nov 19:01:13 19:04:22 26° 204° (SSW) 19:07:30 2401.200-2431.200
BEESAT 2 26 Nov 19:02:44 19:06:11 27° 114° (ESE) 19:09:42 435.950
CANX-2 26 Nov 19:04:12 19:07:41 26° 68° (ENE) 19:11:11 2200.000
DOVE 4 26 Nov 19:05:35 19:07:59 14° 64° (ENE) 19:10:20 437.250
COMPASS 1 26 Nov 19:07:04 19:10:00 19° 66° (ENE) 19:12:57 437.405
VERMONT LUNAR 26 Nov 19:10:03 19:12:34 18° 209° (SSW) 19:15:05 437.305
STRAND 1 26 Nov 19:20:18 19:25:13 49° 290° (WNW) 19:30:06 437.568
PRISM 26 Nov 19:27:07 19:29:05 13° 298° (WNW) 19:31:01 437.425
CINEMA 3 26 Nov 19:35:45 19:38:35 17° 65° (ENE) 19:41:22 145.822/145.860
CUTE 1.7 + AOD 2 26 Nov 19:38:01 19:42:07 54° 74° (ENE) 19:46:16 437.475
AIST 2 26 Nov 19:39:58 19:43:44 33° 115° (ESE) 19:47:35 435.215
GOMX 1 26 Nov 19:48:25 19:53:01 52° 73° (ENE) 19:57:21 467.674
UKube-1 26 Nov 20:06:52 20:10:50 36° 69° (ENE) 20:14:50 .
AISAT 26 Nov 20:08:53 20:11:06 14° 61° (ENE) 20:13:19 437.250
SEEDS 26 Nov 20:10:02 20:14:13 75° 258° (WSW) 20:18:26 437.485
FUNcube-1 26 Nov 20:12:14 20:15:12 19° 66° (ENE) 20:18:09 145.935
CUBESAT XI-V 26 Nov 20:12:58 20:15:13 14° 299° (WNW) 20:17:28 437.345
Oscar 11 26 Nov 20:17:23 20:21:32 50° 73° (ENE) 20:25:43 145.826/435.025
BRITE-PL 26 Nov 20:20:34 20:25:28 54° 260° (W) 20:30:02 437.365/2234.400
BEESAT 3 26 Nov 20:24:19 20:28:13 40° 309° (NW) 20:32:11 437.485
AAUSAT CUBESAT 2 26 Nov 20:25:24 20:29:32 67° 259° (W) 20:33:42 437.432
DELFI C3 26 Nov 20:26:56 20:30:53 52° 73° (ENE) 20:34:53 145.870
50 SAT 26 Nov 20:34:56 20:37:32 17° 65° (ENE) 20:40:08 437.505
AIST 1 26 Nov 20:35:06 20:37:48 16° 291° (WNW) 20:40:31
PCSat 26 Nov 20:37:26 20:41:57 26° 313° (NW) 20:46:31 145.827
UWE-3 26 Nov 20:39:06 20:43:05 43° 72° (ENE) 20:47:03 435.000/436.395/437.385
CANX-2 26 Nov 20:39:55 20:43:32 28° 265° (W) 20:47:12 2200.000
CUBEBUG 2 26 Nov 20:40:21 20:44:29 52° 73° (ENE) 20:48:33 437.445
BEESAT 2 26 Nov 20:40:38 20:44:23 32° 312° (NW) 20:48:11 435.950
DOVE 4 26 Nov 20:40:50 20:45:22 59° 259° (W) 20:49:41 437.250
COMPASS 1 26 Nov 20:41:34 20:45:28 38° 262° (W) 20:49:24 437.405
DX 1 26 Nov 20:42:44 20:47:07 90° 82° (E) 20:51:32 434.975-435.025
HO-68 26 Nov 20:43:05 20:49:44 40° 262° (W) 20:56:26 435.675
RS-15 26 Nov 20:49:52 20:58:05 23° 7° (N) 21:06:27 29.354- 29.394
HUMSAT D 26 Nov 20:50:11 20:53:47 29° 69° (ENE) 20:57:22 437.325/437.525
GONETS M04 26 Nov 20:59:20 21:05:26 21° 282° (WNW) 21:11:31
CINEMA 3 26 Nov 21:11:19 21:15:30 44° 261° (W) 21:19:35 145.822/145.860
ZACube-1 26 Nov 21:12:10 21:16:23 87° 77° (ENE) 21:20:34 437.345
VELOX 1 26 Nov 21:15:58 21:20:23 63° 74° (ENE) 21:24:49 145.980
CUTE 1.7 + AOD 2 26 Nov 21:16:25 21:18:24 13° 270° (W) 21:20:23 437.475
ESTCUBE 1 26 Nov 21:18:10 21:21:56 26° 67° (ENE) 21:25:44 437.505/2401.250
AIST 2 26 Nov 21:18:41 21:22:23 28° 313° (NW) 21:26:09 435.215
GOMX 1 26 Nov 21:28:31 21:31:23 16° 268° (W) 21:34:09 467.674
NANOSAT C BR1 26 Nov 21:39:55 21:42:13 14° 91° (E) 21:44:30 145.865
AISAT 26 Nov 21:42:44 21:47:12 66° 258° (WSW) 21:51:40 437.250
UKube-1 26 Nov 21:43:47 21:47:06 21° 266° (W) 21:50:26 .
FUNcube-1 26 Nov 21:47:25 21:51:19 37° 262° (W) 21:55:13 145.935
QB50P1 26 Nov 21:49:23 21:52:20 18° 93° (E) 21:55:17 145.935-145.965
CUBEBUG 1 26 Nov 21:52:38 21:56:58 56° 73° (ENE) 22:01:20 437.445
Oscar 11 26 Nov 21:55:33 21:58:00 15° 269° (W) 22:00:27 145.826/435.025
BUGSAT 1 26 Nov 21:55:57 21:58:38 17° 93° (E) 22:01:18 437.445
TIGRISAT 26 Nov 21:56:38 22:00:39 33° 97° (E) 22:04:44 435.000
DELFI C3 26 Nov 22:04:43 22:06:32 13° 270° (W) 22:08:21 145.870
50 SAT 26 Nov 22:08:44 22:12:32 40° 262° (W) 22:16:22 437.505
UNISAT 6 26 Nov 22:10:34 22:14:52 47° 99° (E) 22:19:16 437.425
POPSAT HIP 1 26 Nov 22:13:37 22:17:28 33° 97° (E) 22:21:17 437.405
UWE-3 26 Nov 22:17:14 22:19:52 16° 268° (W) 22:22:29 435.000/436.395/437.385
CUBEBUG 2 26 Nov 22:19:23 22:21:30 13° 269° (W) 22:23:36 437.445
HUMSAT D 26 Nov 22:26:19 22:29:36 23° 265° (W) 22:32:54 437.325/437.525
CUSAT 1 26 Nov 22:33:58 22:38:11 31° 76° (ENE) 22:43:34 437.405
ANTELSAT 26 Nov 22:39:20 22:43:49 85° 284° (WNW) 22:48:22 437.575/2403.000
ISS 26 Nov 22:43:44 22:46:55 51° 141° (SE) 22:50:08 145.825
POLYITAN 1 26 Nov 22:47:27 22:51:42 83° 103° (ESE) 22:55:55 437.675
SWISSCUBE 26 Nov 22:48:33 22:50:13 12° 59° (ENE) 22:51:53 437.505
QB50P2 26 Nov 22:49:07 22:53:22 87° 103° (ESE) 22:57:36 145.880/145.840
DUCHIFAT 1 26 Nov 22:54:36 22:58:50 83° 285° (WNW) 23:03:03 145.980
ESTCUBE 1 26 Nov 22:54:38 22:58:42 32° 264° (W) 23:02:47 437.505/2401.250
VELOX 1 26 Nov 22:55:26 22:57:23 13° 270° (W) 22:59:22 145.980
AUBIESAT-1 26 Nov 22:56:24 22:59:33 21° 58° (ENE) 23:02:54 437.475
TISAT 1 26 Nov 23:00:38 23:04:54 79° 75° (ENE) 23:09:11 437.305
M-CUBED/EXP-1 PRIME 26 Nov 23:01:55 23:05:20 25° 60° (ENE) 23:09:01 437.505
DANDE 26 Nov 23:03:22 23:07:45 47° 79° (ENE) 23:13:37 436.750
RS-15 26 Nov 23:04:00 23:14:29 43° 40° (NE) 23:25:19 29.354- 29.394
SPROUT 26 Nov 23:13:10 23:17:30 88° 257° (WSW) 23:21:50 437.525
NANOSAT C BR1 26 Nov 23:14:18 23:18:24 49° 287° (WNW) 23:22:27 145.865
BEESAT 26 Nov 23:17:18 23:20:47 21° 64° (ENE) 23:24:18 436.000
QB50P1 26 Nov 23:24:28 23:28:23 38° 289° (WNW) 23:32:18 145.935-145.965
BUGSAT 1 26 Nov 23:30:31 23:34:19 38° 289° (WNW) 23:38:04 437.445
CUBEBUG 1 26 Nov 23:31:18 23:33:41 14° 269° (W) 23:36:05 437.445
TIGRISAT 26 Nov 23:33:41 23:37:16 25° 293° (WNW) 23:40:54 435.000
UNISAT 6 26 Nov 23:48:20 23:51:20 18° 295° (WNW) 23:54:23 437.425
POPSAT HIP 1 26 Nov 23:49:57 23:53:11 22° 294° (WNW) 23:56:25 437.405
MaSat-1 27 Nov 00:08:14 00:10:31 55° 246° (WSW) 00:12:51 437.345
ITUPSAT 1 27 Nov 00:12:00 00:16:46 66° 73° (ENE) 00:21:34 437.325
CUSAT 1 27 Nov 00:16:57 00:21:16 33° 265° (W) 00:26:47 437.405
YUBILEINY 27 Nov 00:20:11 00:25:03 16° 75° (ENE) 00:29:55 435.215
ISS 27 Nov 00:20:49 00:23:43 28° 339° (NNW) 00:26:37 145.825
SWISSCUBE 27 Nov 00:22:32 00:27:20 88° 254° (WSW) 00:32:12 437.505
STARS 27 Nov 00:24:41 00:26:48 13° 62° (ENE) 00:28:55 437.465
AUBIESAT-1 27 Nov 00:30:22 00:34:14 41° 258° (WSW) 00:38:27 437.475
M-CUBED/EXP-1 PRIME 27 Nov 00:36:34 00:40:14 32° 260° (W) 00:44:14 437.505
DANDE 27 Nov 00:47:41 00:51:11 20° 267° (W) 00:55:24 436.750
BEESAT 27 Nov 00:53:41 00:58:18 47° 261° (W) 01:02:57 436.000
Gurwin Techsat 1B 27 Nov 01:02:11 01:03:02 10° 87° (E) 01:03:52 435.225
KKS-1 27 Nov 01:04:46 01:09:03 49° 72° (ENE) 01:13:21 437.445
Oscar 19 27 Nov 01:05:07 01:10:10 53° 100° (E) 01:15:13 437.125/150
RS-15 27 Nov 01:16:28 01:27:33 68° 244° (WSW) 01:39:09 29.354- 29.394
ITUPSAT 1 27 Nov 01:52:42 01:55:07 14° 270° (W) 01:57:32 437.325
STARS 27 Nov 01:58:23 02:02:45 65° 258° (WSW) 02:07:09 437.465
ISS 27 Nov 01:58:57 02:01:08 16° 359° (N) 02:03:20 145.825
PCSat 27 Nov 01:59:15 02:00:43 11° 32° (NNE) 02:02:12 145.827
ITAMSAT 1 27 Nov 02:00:21 02:05:32 66° 102° (ESE) 02:10:39 435.822/435.867
YUBILEINY 27 Nov 02:11:36 02:20:25 83° 95° (E) 02:29:13 435.215
HORYU 2 27 Nov 02:13:39 02:17:05 21° 94° (E) 02:20:31 437.375
Gurwin Techsat 1B 27 Nov 02:38:23 02:43:44 86° 104° (ESE) 02:49:03 435.225
KKS-1 27 Nov 02:43:12 02:45:58 16° 268° (W) 02:48:45 437.445
Oscar 19 27 Nov 02:45:21 02:49:08 21° 297° (WNW) 02:52:54 437.125/150
SO-50 27 Nov 03:04:42 03:09:10 67° 120° (ESE) 03:13:48 436.795
BEESAT 3 27 Nov 03:06:01 03:09:09 20° 43° (NE) 03:12:15 437.485
AO-7 27 Nov 03:20:04 03:27:41 37° 98° (E) 03:35:15 29.400- 29.500
BEESAT 2 27 Nov 03:22:08 03:25:37 24° 45° (NE) 03:29:04 435.950
RS-15 27 Nov 03:32:34 03:37:45 14° 264° (W) 03:43:02 29.354- 29.394
ISS 27 Nov 03:35:45 03:38:35 26° 19° (NNE) 03:41:26 145.825
PCSat 27 Nov 03:40:14 03:45:31 49° 54° (NE) 03:50:45 145.827
ITAMSAT 1 27 Nov 03:41:11 03:44:28 17° 300° (WNW) 03:47:44 435.822/435.867
JAS-2 27 Nov 03:44:43 03:49:20 19° 86° (E) 03:53:36 435.910
HORYU 2 27 Nov 03:49:43 03:53:53 38° 290° (WNW) 03:58:02 437.375
MOZHAYETS 4 27 Nov 03:53:04 03:57:39 81° 76° (ENE) 04:02:18
AIST 2 27 Nov 04:01:15 04:05:04 30° 47° (NE) 04:08:50 435.215
YUBILEINY 27 Nov 04:11:48 04:18:18 22° 297° (WNW) 04:24:50 435.215
O/OREOS (USA 219) 27 Nov 04:16:01 04:18:31 15° 99° (E) 04:21:02 437.305
Gurwin Techsat 1B 27 Nov 04:20:21 04:22:57 14° 302° (WNW) 04:25:34 435.225
PRISM 27 Nov 04:41:16 04:45:20 51° 72° (ENE) 04:49:28 437.425
BEESAT 3 27 Nov 04:43:35 04:47:40 52° 241° (WSW) 04:51:41 437.485
SO-50 27 Nov 04:46:52 04:50:12 19° 320° (NW) 04:53:36 436.795
Cubesat XI-IV 27 Nov 04:49:48 04:52:31 14° 89° (E) 04:55:12 437.490
STRAND 1 27 Nov 04:58:18 05:02:50 33° 67° (ENE) 05:07:23 437.568
BEESAT 2 27 Nov 05:00:06 05:04:02 39° 244° (WSW) 05:07:54 435.950
AIST 1 27 Nov 05:03:49 05:06:03 14° 68° (ENE) 05:08:16
ISS 27 Nov 05:12:11 05:15:27 61° 218° (SW) 05:18:42 145.825
AO-7 27 Nov 05:12:38 05:20:39 52° 297° (WNW) 05:28:38 29.400- 29.500
PCSat 27 Nov 05:24:16 05:28:36 25° 252° (WSW) 05:32:55 145.827
JAS-2 27 Nov 05:28:10 05:35:17 75° 287° (WNW) 05:41:30 435.910
CUTE-I 27 Nov 05:29:18 05:34:03 32° 96° (E) 05:38:45 437.470
MOZHAYETS 4 27 Nov 05:35:13 05:35:28 10° 272° (W) 05:35:43
CUBESAT XI-V 27 Nov 05:37:36 05:42:19 74° 75° (ENE) 05:47:03 437.345
AIST 2 27 Nov 05:39:52 05:43:41 31° 245° (WSW) 05:47:27 435.215
O/OREOS (USA 219) 27 Nov 05:53:03 05:57:26 54° 296° (WNW) 06:01:51 437.305
GONETS M04 27 Nov 06:09:43 06:15:14 19° 77° (ENE) 06:20:46
PRISM 27 Nov 06:18:56 06:21:12 14° 269° (W) 06:23:29 437.425
Cubesat XI-IV 27 Nov 06:27:50 06:33:10 75° 286° (WNW) 06:38:28 437.490
STRAND 1 27 Nov 06:37:24 06:41:58 32° 264° (W) 06:46:34 437.568
AIST 1 27 Nov 06:39:49 06:44:06 55° 266° (W) 06:48:20
AO-7 27 Nov 07:08:16 07:11:31 13° 318° (NW) 07:14:46 29.400- 29.500
CUTE-I 27 Nov 07:09:21 07:14:05 34° 293° (WNW) 07:18:47 437.470
JAS-2 27 Nov 07:15:14 07:18:57 15° 308° (NW) 07:22:28 435.910
CUBESAT XI-V 27 Nov 07:18:36 07:20:17 12° 272° (W) 07:21:57 437.345
GOMX 1 27 Nov 07:51:23 07:53:03 12° 91° (E) 07:54:45 467.674
SEEDS 27 Nov 07:55:15 07:58:10 18° 92° (E) 08:01:05 437.485
GONETS M04 27 Nov 08:01:56 08:10:45 90° 277° (W) 08:19:40
AAUSAT CUBESAT 2 27 Nov 08:09:22 08:12:23 19° 93° (E) 08:15:24 437.432
HO-68 27 Nov 08:09:33 08:16:12 39° 98° (E) 08:22:48 435.675
Cubesat XI-IV 27 Nov 08:10:59 08:12:20 11° 304° (NW) 08:13:40 437.490
CANX-2 27 Nov 08:24:13 08:28:22 46° 99° (E) 08:32:31 2200.000
BRITE-PL 27 Nov 08:24:47 08:28:42 39° 98° (E) 08:32:40 437.365/2234.400
COMPASS 1 27 Nov 08:24:59 08:28:48 31° 96° (E) 08:32:35 437.405
DX 1 27 Nov 08:32:12 08:34:37 15° 92° (E) 08:37:02 434.975-435.025
NANOSAT C BR1 27 Nov 08:34:29 08:36:31 13° 62° (ENE) 08:38:32 145.865
DOVE 4 27 Nov 08:39:27 08:43:12 31° 97° (E) 08:47:02 437.250
QB50P1 27 Nov 08:43:48 08:46:30 17° 64° (ENE) 08:49:12 145.935-145.965
BUGSAT 1 27 Nov 08:47:39 08:50:08 15° 64° (ENE) 08:52:35 437.445
TIGRISAT 27 Nov 08:56:42 09:00:26 31° 69° (ENE) 09:04:11 435.000
CUTE 1.7 + AOD 2 27 Nov 08:58:37 09:02:56 80° 284° (WNW) 09:07:13 437.475
ZACube-1 27 Nov 09:01:33 09:04:09 16° 92° (E) 09:06:47 437.345
CINEMA 3 27 Nov 09:05:24 09:09:20 36° 98° (E) 09:13:23 145.822/145.860
POPSAT HIP 1 27 Nov 09:07:39 09:11:19 29° 69° (ENE) 09:14:59 437.405
VELOX 1 27 Nov 09:08:48 09:10:11 11° 89° (E) 09:11:33 145.980
UNISAT 6 27 Nov 09:10:45 09:14:48 44° 72° (ENE) 09:18:53 437.425
GOMX 1 27 Nov 09:27:28 09:31:33 56° 286° (WNW) 09:35:43 467.674
UKube-1 27 Nov 09:29:53 09:34:11 60° 101° (ESE) 09:38:27 .
SEEDS 27 Nov 09:30:10 09:34:11 41° 288° (WNW) 09:38:12 437.485
AISAT 27 Nov 09:34:09 09:37:37 22° 94° (E) 09:41:04 437.250
FUNcube-1 27 Nov 09:35:10 09:39:06 36° 98° (E) 09:43:04 145.935
ANTELSAT 27 Nov 09:39:27 09:43:43 88° 257° (WSW) 09:48:01 437.575/2403.000
Oscar 11 27 Nov 09:40:06 09:44:28 86° 284° (WNW) 09:48:50 145.826/435.025
POLYITAN 1 27 Nov 09:41:25 09:45:38 69° 75° (ENE) 09:49:52 437.675
DELFI C3 27 Nov 09:42:19 09:46:29 88° 103° (ESE) 09:50:38 145.870
QB50P2 27 Nov 09:42:51 09:47:05 71° 75° (ENE) 09:51:20 145.880/145.840
AAUSAT CUBESAT 2 27 Nov 09:44:17 09:48:12 38° 289° (WNW) 09:52:08 437.432
DUCHIFAT 1 27 Nov 09:47:58 09:52:13 80° 76° (ENE) 09:56:28 145.980
50 SAT 27 Nov 09:49:18 09:52:42 25° 95° (E) 09:56:06 437.505
SO-50 27 Nov 09:56:20 09:59:02 15° 35° (NE) 10:01:44 436.795
HO-68 27 Nov 09:57:16 10:03:54 42° 296° (WNW) 10:10:31 435.675
COMPASS 1 27 Nov 10:01:00 10:04:23 23° 293° (WNW) 10:07:46 437.405
CANX-2 27 Nov 10:01:10 10:03:58 17° 295° (WNW) 10:06:45 2200.000
GONETS M04 27 Nov 10:02:45 10:08:53 20° 299° (WNW) 10:15:04
BRITE-PL 27 Nov 10:04:14 10:06:59 17° 295° (WNW) 10:09:45 437.365/2234.400
UWE-3 27 Nov 10:04:34 10:08:50 89° 282° (WNW) 10:13:11 435.000/436.395/437.385
DX 1 27 Nov 10:06:57 10:11:11 52° 288° (WNW) 10:15:22 434.975-435.025
CUBEBUG 2 27 Nov 10:07:17 10:11:31 73° 285° (WNW) 10:15:52 437.445
NANOSAT C BR1 27 Nov 10:07:41 10:11:54 61° 259° (W) 10:16:07 145.865
HUMSAT D 27 Nov 10:09:21 10:13:26 52° 100° (E) 10:17:33 437.325/437.525
DOVE 4 27 Nov 10:17:35 10:20:51 23° 292° (WNW) 10:24:12 437.250
QB50P1 27 Nov 10:17:56 10:22:03 46° 261° (W) 10:26:09 145.935-145.965
BUGSAT 1 27 Nov 10:21:04 10:25:13 52° 260° (W) 10:29:22 437.445
TIGRISAT 27 Nov 10:33:50 10:37:14 23° 265° (W) 10:40:38 435.000
ZACube-1 27 Nov 10:36:42 10:40:46 46° 288° (WNW) 10:44:54 437.345
VELOX 1 27 Nov 10:42:50 10:47:14 68° 286° (WNW) 10:51:37 145.980
CINEMA 3 27 Nov 10:43:15 10:46:21 20° 293° (WNW) 10:49:31 145.822/145.860
POPSAT HIP 1 27 Nov 10:43:40 10:47:12 25° 265° (W) 10:50:44 437.405
ESTCUBE 1 27 Nov 10:46:27 10:50:53 50° 100° (E) 10:55:16 437.505/2401.250
TISAT 1 27 Nov 10:47:26 10:49:01 12° 90° (E) 10:50:36 437.305
Oscar 19 27 Nov 10:47:48 10:49:14 11° 57° (ENE) 10:50:40 437.125/150
UNISAT 6 27 Nov 10:49:12 10:51:51 16° 268° (W) 10:54:32 437.425
SPROUT 27 Nov 11:00:52 11:03:26 16° 92° (E) 11:06:00 437.525
UKube-1 27 Nov 11:07:37 11:09:51 14° 298° (WNW) 11:12:05 .
AISAT 27 Nov 11:10:19 11:14:20 35° 291° (WNW) 11:18:19 437.250
FUNcube-1 27 Nov 11:12:05 11:15:15 21° 293° (WNW) 11:18:28 145.935
CUBEBUG 1 27 Nov 11:17:29 11:21:52 78° 285° (WNW) 11:26:11 437.445
POLYITAN 1 27 Nov 11:21:14 11:22:03 10° 271° (W) 11:22:51 437.675
QB50P2 27 Nov 11:23:16 11:23:29 10° 271° (W) 11:23:43 145.880/145.840
50 SAT 27 Nov 11:24:33 11:27:58 26° 291° (WNW) 11:31:23 437.505
SO-50 27 Nov 11:35:33 11:40:26 73° 55° (NE) 11:45:19 436.795
ITAMSAT 1 27 Nov 11:42:30 11:45:22 15° 59° (ENE) 11:48:15 435.822/435.867
HUMSAT D 27 Nov 11:46:32 11:48:51 15° 296° (WNW) 11:51:10 437.325/437.525
CUSAT 1 27 Nov 11:50:04 11:51:55 17° 93° (E) 11:53:45 437.405
AUBIESAT-1 27 Nov 12:13:12 12:16:26 18° 96° (E) 12:19:36 437.475
ITUPSAT 1 27 Nov 12:13:29 12:16:30 17° 91° (E) 12:19:31 437.325
M-CUBED/EXP-1 PRIME 27 Nov 12:19:04 12:22:52 22° 97° (E) 12:26:35 437.505
TISAT 1 27 Nov 12:21:06 12:25:15 59° 286° (WNW) 12:29:22 437.305
YUBILEINY 27 Nov 12:21:20 12:29:31 42° 72° (ENE) 12:37:36 435.215
DANDE 27 Nov 12:21:46 12:24:23 44° 97° (E) 12:26:53 436.750
Gurwin Techsat 1B 27 Nov 12:22:16 12:26:02 20° 62° (ENE) 12:29:48 435.225
Oscar 19 27 Nov 12:22:37 12:27:43 81° 75° (ENE) 12:32:52 437.125/150
SWISSCUBE 27 Nov 12:23:14 12:27:01 23° 94° (E) 12:30:46 437.505
ESTCUBE 1 27 Nov 12:24:23 12:27:22 18° 297° (WNW) 12:30:20 437.505/2401.250
AO-7 27 Nov 12:33:10 12:36:35 13° 42° (NE) 12:39:59 29.400- 29.500
SPROUT 27 Nov 12:35:40 12:39:47 47° 288° (WNW) 12:43:53 437.525
BEESAT 27 Nov 12:53:25 12:57:59 42° 99° (E) 13:02:29 436.000
HORYU 2 27 Nov 13:13:17 13:16:40 22° 65° (ENE) 13:20:05 437.375
SO-50 27 Nov 13:17:43 13:20:25 15° 252° (WSW) 13:23:07 436.795
ITAMSAT 1 27 Nov 13:18:59 13:24:12 78° 257° (WSW) 13:29:27 435.822/435.867
PHONESAT 2.4 27 Nov 13:33:09 13:36:03 22° 153° (SSE) 13:38:58 2401.200-2431.200
RS-15 27 Nov 13:34:02 13:40:23 18° 98° (E) 13:46:42 29.354- 29.394
VERMONT LUNAR 27 Nov 13:37:33 13:40:43 29° 158° (SSE) 13:43:53 437.305
MaSat-1 27 Nov 13:37:37 13:39:22 15° 109° (ESE) 13:41:03 437.345
AUBIESAT-1 27 Nov 13:46:54 13:51:45 58° 292° (WNW) 13:56:27 437.475
STARS 27 Nov 13:48:36 13:52:01 22° 94° (E) 13:55:25 437.465
ITUPSAT 1 27 Nov 13:50:02 13:54:44 55° 288° (WNW) 13:59:24 437.325
M-CUBED/EXP-1 PRIME 27 Nov 13:53:21 13:58:05 47° 294° (WNW) 14:02:43 437.505
JAS-2 27 Nov 13:59:07 14:02:23 13° 50° (NE) 14:05:39 435.910
Gurwin Techsat 1B 27 Nov 14:00:19 14:05:32 58° 259° (W) 14:10:48 435.225
SWISSCUBE 27 Nov 14:00:32 14:05:01 40° 291° (WNW) 14:09:27 437.505
Oscar 19 27 Nov 14:05:45 14:07:40 12° 271° (W) 14:09:36 437.125/150
YUBILEINY 27 Nov 14:18:16 14:26:18 44° 273° (W) 14:34:17 435.215
AO-7 27 Nov 14:19:32 14:27:30 54° 64° (ENE) 14:35:30 29.400- 29.500
O/OREOS (USA 219) 27 Nov 14:23:16 14:27:19 33° 60° (ENE) 14:31:22 437.305
KKS-1 27 Nov 14:31:50 14:36:18 86° 284° (WNW) 14:40:44 437.445
BEESAT 27 Nov 14:31:51 14:35:34 23° 295° (WNW) 14:39:15 436.000
HORYU 2 27 Nov 14:49:03 14:53:08 37° 262° (W) 14:57:16 437.375
PHONESAT 2.4 27 Nov 15:10:49 15:14:27 54° 170° (S) 15:18:06 2401.200-2431.200
MaSat-1 27 Nov 15:11:29 15:13:43 20° 302° (WNW) 15:15:49 437.345
VERMONT LUNAR 27 Nov 15:15:19 15:18:54 61° 174° (S) 15:22:29 437.305
STARS 27 Nov 15:24:35 15:28:35 35° 290° (WNW) 15:32:34 437.465
JAS-2 27 Nov 15:38:18 15:45:47 57° 69° (ENE) 15:53:25 435.910
RS-15 27 Nov 15:39:51 15:50:47 78° 119° (ESE) 16:01:43 29.354- 29.394
MOZHAYETS 4 27 Nov 15:48:45 15:52:03 19° 92° (E) 15:55:19
O/OREOS (USA 219) 27 Nov 16:02:55 16:06:34 25° 257° (WSW) 16:10:12 437.305
Cubesat XI-IV 27 Nov 16:11:49 16:16:13 27° 64° (ENE) 16:20:37 437.490
AO-7 27 Nov 16:13:06 16:20:31 36° 263° (W) 16:28:01 29.400- 29.500
PHONESAT 2.4 27 Nov 16:49:25 16:53:06 61° 187° (S) 16:56:46 2401.200-2431.200
CUTE-I 27 Nov 16:51:41 16:56:55 57° 71° (ENE) 17:02:10 437.470
VERMONT LUNAR 27 Nov 16:53:41 16:57:14 52° 191° (S) 17:00:46 437.305
JAS-2 27 Nov 17:24:18 17:31:02 33° 267° (W) 17:37:58 435.910
MOZHAYETS 4 27 Nov 17:25:02 17:29:29 45° 289° (WNW) 17:33:55
CUBESAT XI-V 27 Nov 17:35:06 17:38:15 18° 91° (E) 17:41:23 437.345
Cubesat XI-IV 27 Nov 17:51:00 17:56:04 43° 261° (W) 18:01:11 437.490
RS-15 27 Nov 17:54:22 18:04:14 37° 325° (NW) 18:14:16 29.354- 29.394
PRISM 27 Nov 17:59:18 18:03:34 80° 103° (ESE) 18:07:46 437.425
GONETS M04 27 Nov 18:11:42 18:20:10 48° 74° (ENE) 18:28:32
PCSat 27 Nov 18:22:46 18:27:44 38° 111° (ESE) 18:32:43 145.827
PHONESAT 2.4 27 Nov 18:28:22 18:31:35 28° 203° (SSW) 18:34:48 2401.200-2431.200
VERMONT LUNAR 27 Nov 18:32:33 18:35:17 20° 207° (SSW) 18:38:01 437.305
